Regional Weather Roundup
Issued by NWS

Home | Current Version | Previous Version | Graphics & Text | Print | Product List | Glossary On
Versions: 1 2 3 4 5 6 7 8 9 10 11 12 13 14 15 16 17 18 19 20 21 22 23 24 25 26 27 28 29 30 31 32 33 34 35 36 37 38 39 40 41 42 43 44 45 46 47 48 49 50
000
ASUS43 KMPX 241901
RWRMN
WEATHER ROUNDUP FOR MINNESOTA
NATIONAL WEATHER SERVICE TWIN CITIES/CHANHASSEN MN
200 PM CDT SUN JUL 24 2016


NOTE: "FAIR" INDICATES FEW OR NO CLOUDS BELOW 12,000 FEET WITH NO
SIGNIFICANT WEATHER AND/OR OBSTRUCTIONS TO VISIBILITY. N/A MEANS
CURRENT SKY AND/OR WEATHER CONDITIONS ARE NOT AVAILABLE.

MNZ060>063-068>070-242000-
   Twin Cities Metro

CITY           SKY/WX    TMP DP  RH WIND       PRES   REMARKS
TWIN CITIES    MOSUNNY   83  62  49 N16G23    29.88S
ST PAUL        SUNNY     82  63  52 NW15G23   29.88R
CRYSTAL        SUNNY     81  62  52 NW15      29.87S
BLAINE         MOSUNNY   82  64  54 W16G22    29.89F
LAKEVILLE      SUNNY     79  64  61 NW14G20   29.90R
EDEN PRAIRIE   SUNNY     82  62  50 NW13G23   29.89R
LAKEVILLE      SUNNY     79  64  61 NW14G20   29.90R
SOUTH ST PAUL  SUNNY     82  61  49 NW16G23   29.88R
LAKE ELMO      FAIR      81  66  61 W12G23    29.90R
$$
MNZ001>005-007-008-013>017-022>024-027-028-242000-
   Northwest Minnesota

CITY           SKY/WX    TMP DP  RH WIND       PRES   REMARKS
HALLOCK        MOSUNNY   77  63  61 NW13G23   29.84S
ROSEAU         MOSUNNY   77  64  65 W14G21    29.83S
WARROAD        MOSUNNY   75  64  69 W16G23    29.82S
THIEF RVR FALL MOSUNNY   76  64  66 W10G21    29.88S
CROOKSTON      MOSUNNY   79  63  57 NW21      29.88S
FOSSTON        MOSUNNY   75  63  64 W14G20    29.89S
DETROIT LAKES  MOSUNNY   77  61  57 NW15      29.92F
MOORHEAD       MOSUNNY   79  59  50 NW20G25   29.91F
PARK RAPIDS    MOSUNNY   79  61  53 W14G24    29.90F
MAHNOMEN       MOCLDY    78  61  55 W15G22    29.89F
$$
MNZ006-009>011-018-025>026-242000-
   North Central Minnesota

CITY           SKY/WX    TMP DP  RH WIND       PRES   REMARKS
BAUDETTE       MOSUNNY   76  59  55 W15G25    29.81F
FLAG ISLAND    PTSUNNY   73  57  56 W18G26    29.78S
INTL FALLS     MOSUNNY   78  61  55 W15G23    29.79F
WASKISH        MOSUNNY   77  64  65 W16       29.83F
BIG FORK       MOSUNNY   77  59  53 W13G21    29.84R
LONGVILLE      MOSUNNY   77  61  57 W8        29.88S
GRAND RAPIDS   MOSUNNY   76  61  59 W9G17     29.87S
CRANE LAKE     MOSUNNY   73  61  64 NW3       29.80F
ORR            PTSUNNY   75  57  53 W9G17     29.79S
COOK           MOSUNNY   77  61  57 W12G17    29.82S
WALKER         FAIR      76  59  55 W13G21    29.88S
$$
MNZ012-019>021-037-242000-
   Northeast Minnesota

CITY           SKY/WX    TMP DP  RH WIND       PRES   REMARKS
DULUTH         MOSUNNY   79  62  56 NW17      29.83S
ELY            MOSUNNY   73  57  56 W14G24    29.80S
HIBBING        MOSUNNY   75  60  59 W14G23    29.83S
EVELETH        MOSUNNY   77  61  56 W10       29.84R
DULUTH HARBOR  CLOUDY    81  64  57 W17       29.80S
TWO HARBORS    MOSUNNY   81  64  57 W12G22    29.78R
SILVER BAY     MOSUNNY   82  61  47 W6        29.77R
GRAND MARAIS     N/A     65  60  84 SW9       29.72S
G MARAIS ARPRT MOSUNNY   77  57  50 W8        29.78R
$$
MNZ029>031-032-039>041-046>048-054>057-064-242000-
   West Central Minnesota

CITY           SKY/WX    TMP DP  RH WIND       PRES   REMARKS
FERGUS FALLS   MOSUNNY   79  63  57 NW13G21   29.93R
WHEATON        SUNNY     82  64  54 NW9       29.96S
MORRIS         CLOUDY    81  63  54 NW13      29.94R
ALEXANDRIA     MOSUNNY   78  60  53 NW13G24   29.94F
ELBOW LAKE     PTSUNNY   77  65  65 NW12G18   29.95R
WADENA         SUNNY     75  63  64 NW12G17   29.90F
GLENWOOD       MOSUNNY   75  63  64 NW12      29.95R
APPLETON       PTSUNNY   79  61  53 NW10G21   29.96R
BENSON         MOSUNNY   81  61  50 N13       29.95R
ORTONVILLE     PTSUNNY   79  61  53 NW10      29.97R
MADISON        PTSUNNY   79  61  53 NW14      29.98R
WILLMAR        FAIR      79  64  61 NW12      29.96R
$$
MNZ033>034-036-042>043-049>051-058-059-242000-
   Central Minnesota

CITY           SKY/WX    TMP DP  RH WIND       PRES   REMARKS
ST CLOUD       SUNNY     79  63  57 NW15      29.89F
SAUK CENTRE    FAIR      76  60  58 NW12G17   29.91F
PAYNESVILLE    MOSUNNY   77  63  61 NW13      29.92F
AITKIN         SUNNY     79  57  47 W8        29.87F
PINE RIVER     SUNNY     77  61  57 NW8       29.91F
BRAINERD       SUNNY     78  60  53 W12G20    29.89F
STAPLES        SUNNY     79  57  47 W13       29.89F
LONG PRAIRIE   FAIR      77  59  53 W8        29.90F
LITTLE FALLS   SUNNY     77  55  47 W14G21    29.90F
LITCHFIELD     SUNNY     79  64  61 W8        29.93S
BUFFALO        SUNNY     78  62  56 W13       29.91F
MAPLE LAKE     SUNNY     79  64  59 W10G16    29.91F
HUTCHINSON     SUNNY     79  65  62 W9        29.94S
$$
MNZ037-044-045-052-053-242000-
   East Central Minnesota

CITY           SKY/WX    TMP DP  RH WIND       PRES   REMARKS
PRINCETON      SUNNY     82  63  51 NW12      29.89F
MORA           SUNNY     77  59  53 NW17      29.89F
CAMBRIDGE      MOSUNNY   81  63  54 W13G20    29.87F
RUSH CITY      MOSUNNY   80  64  57 W8        29.88S
MOOSE LAKE     PTSUNNY   77  63  61 W7        29.85R
HINCKLEY       FAIR      79  64  61 W12       29.86S
CLOQUET        MOSUNNY   79  57  47 W16G22    29.84S
MCGREGOR       MOSUNNY   77  61  57 W10G18    29.87F
$$
MNZ071>073-080-081-089-090-097-098-242000-
   Southwest Minnesota

CITY           SKY/WX    TMP DP  RH WIND       PRES   REMARKS
MONTEVIDEO     CLOUDY    81  64  57 NW8       29.97S
GRANITE FALLS  CLOUDY    80  64  57 W10G16    29.98R
CANBY          PTSUNNY   79  61  55 NW12G17   30.02R
MARSHALL       PTSUNNY   77  63  61 NW9       29.99R
REDWOOD FALLS  SUNNY     79  59  50 NW13G21   29.95F
OLIVIA         MOSUNNY   77  63  61 W9        29.96R
PIPESTONE      CLOUDY    79  61  53 W9        30.05R
WINDOM         MOSUNNY   81  61  50 NW10      29.99S
WORTHINGTON    PTSUNNY   78  62  57 NW13      30.02S
JACKSON        MOSUNNY   77  59  53 NW7       30.00F
TRACY          CLOUDY    78  65  64 NW8       30.00R
SLAYTON        PTSUNNY   79  62  54 NW9       30.03R
$$
MNZ065>067-074>077-082>085-091>093-242000-
   South Central Minnesota

CITY           SKY/WX    TMP DP  RH WIND       PRES   REMARKS
MANKATO        SUNNY     79  63  57 NW15G22   29.93F
NEW ULM        SUNNY     79  61  53 NW13G18   29.93F
ST JAMES       SUNNY     73  59  60 W6        29.97S
FAIRMONT       SUNNY     81  48  32 NW9       29.96S
GLENCOE        SUNNY     80  65  61 W10       29.92S
FARIBAULT      SUNNY     81  64  57 NW10G20   29.92S
OWATONNA       SUNNY     82  63  51 W13       29.93R
WASECA         SUNNY     77  63  61 W13       29.94S
ALBERT LEA     SUNNY     81  64  57 W8        29.94R
$$
MNZ078>079-086>088-094>096-242000-
   Southeast Minnesota

CITY           SKY/WX    TMP DP  RH WIND       PRES   REMARKS
ROCHESTER      SUNNY     82  65  56 W9        29.91F
RED WING       SUNNY     84  61  45 NW8       29.86S
DODGE CENTER   SUNNY     82  61  47 NW14      29.93R
WINONA         SUNNY     82  61  47 NW10G17   29.86F
AUSTIN         SUNNY     81  61  50 NW13G18   29.93R
PRESTON        SUNNY     80  61  51 NW14      29.91F
$$
ABBREVIATIONS USED IN REMARKS
   TC - TEMPERATURES IN CELSIUS
  WCI - WIND CHILL INDEX
   HX - HEAT INDEX
  VSB - VISIBILITY
$$




USA.gov is the U.S. government's official web portal to all federal, state and local government web resources and services.